Theta_e
316 316 316 315 315 316 316 316 317 317 317 317 317 317 317 318 311 298 296 304 310 318 314 299 298 296 295 295 300 301 293 288 290 290 292 294 292 296 296 294 297 299 303 301 297
316 316 316 316 316 316 316 316 316 317 317 317 316 317 317 317 299 294 304 315 315 316 298 296 294 294 291 293 296 295 288 289 293 294 293 291 291 292 292 292 292 294 300 297 296
315 315 316 316 316 316 316 316 316 316 317 316 316 316 316 310 294 292 311 314 315 308 298 298 295 294 291 293 292 294 289 292 292 292 291 290 289 291 289 288 290 291 294 293 294
315 315 315 316 316 315 316 316 316 316 316 316 316 316 317 297 286 295 311 312 311 301 298 296 294 291 289 289 291 289 292 291 293 292 290 289 289 288 288 290 292 292 292 292 293
315 315 315 315 315 315 315 316 316 315 315 315 315 316 302 291 289 299 308 305 300 298 295 294 292 290 288 288 288 287 288 289 290 289 288 289 287 287 287 290 291 291 291 291 291
315 314 314 314 315 315 315 316 316 315 314 314 314 313 294 286 297 298 298 299 298 297 295 295 293 293 289 287 286 288 289 288 288 289 289 286 285 286 288 289 289 289 290 290 290
315 314 314 314 314 315 314 315 316 315 315 314 314 305 290 289 295 296 298 296 297 297 294 296 296 292 290 287 291 289 285 285 286 286 286 285 282 282 287 288 287 287 288 289 290
315 315 314 314 314 315 314 315 315 315 314 313 312 296 287 295 295 296 297 295 298 298 296 296 298 294 290 290 286 282 282 280 283 284 285 284 280 285 286 286 286 287 288 289 289
315 315 314 314 314 314 314 315 314 312 311 311 295 290 285 300 293 295 295 293 295 295 295 297 293 286 285 282 280 279 277 278 279 284 284 283 280 284 286 286 286 286 287 287 287
316 315 315 314 314 314 315 310 309 303 300 299 295 285 289 287 293 294 295 295 293 291 290 289 285 281 279 278 275 277 276 277 276 280 282 280 280 284 286 285 285 286 286 285 286
316 315 315 315 314 313 303 291 288 288 289 285 287 287 289 293 294 292 294 292 291 287 281 284 280 279 278 279 279 279 279 277 278 282 281 280 280 282 286 284 283 283 283 285 286
317 316 315 314 313 310 295 289 286 287 282 288 290 290 292 292 286 289 293 285 284 280 281 279 278 279 283 283 281 280 278 275 280 281 281 279 279 283 282 282 283 283 284 284 286
318 316 315 314 311 300 293 292 298 293 280 284 289 289 289 290 285 286 289 286 281 280 279 277 279 283 281 280 279 279 278 277 277 281 280 277 278 279 281 283 284 285 286 286 287
318 317 315 312 301 297 293 297 297 291 280 283 284 287 289 289 283 291 289 286 283 279 279 278 281 281 280 279 280 277 280 280 279 275 269 277 271 277 279 280 283 284 285 286 286
317 316 313 308 300 295 296 297 294 290 276 284 283 290 288 284 284 285 290 285 280 281 279 279 280 280 279 280 281 278 281 280 280 272 267 269 268 276 278 280 282 283 285 285 285
316 315 311 306 302 300 299 295 292 284 276 281 283 282 281 283 283 285 284 288 285 281 281 278 282 280 280 282 281 282 279 278 275 270 266 267 269 274 278 279 280 282 283 284 284
315 313 309 305 298 301 298 293 286 282 283 279 279 281 280 280 281 281 280 279 278 275 275 279 280 281 282 279 281 280 275 268 269 267 270 272 268 276 280 279 280 281 283 283 283
314 310 306 302 300 300 297 290 282 284 275 281 280 280 278 280 279 280 278 276 278 275 273 273 274 280 282 279 277 277 275 269 265 266 268 272 268 277 280 281 281 281 282 282 283
310 305 302 301 301 300 295 283 284 285 284 281 281 276 276 279 277 277 276 275 278 278 275 272 274 280 282 281 278 277 274 275 264 259 263 269 272 277 280 280 280 280 281 282 282
303 300 297 303 302 298 288 286 281 286 283 285 283 279 276 276 275 273 274 278 279 281 280 276 273 278 280 280 280 278 279 272 268 265 263 268 268 275 279 279 280 279 280 280 282
301 294 297 302 301 291 285 285 285 288 286 283 282 280 278 277 277 275 277 280 280 280 282 279 276 274 279 277 275 276 275 274 273 270 266 264 275 276 278 280 280 280 280 281 283
297 285 295 298 287 285 284 283 288 285 285 284 282 281 281 278 277 276 274 278 283 282 280 281 278 268 274 275 277 278 276 275 269 267 268 268 272 281 280 280 280 280 282 282 281
289 287 295 294 283 283 284 284 285 282 283 283 283 283 282 281 280 277 274 281 284 283 280 281 275 265 271 273 276 276 277 277 274 272 268 266 275 280 279 279 281 280 282 281 282
287 283 285 287 287 284 276 281 279 286 284 287 286 285 282 280 282 281 276 282 284 284 287 285 275 272 274 276 274 273 275 277 275 267 271 273 278 283 285 284 284 281 280 281 281
290 283 284 281 284 285 285 279 274 282 283 285 283 282 281 276 279 277 280 281 282 286 284 282 269 271 271 273 273 275 275 275 275 276 272 279 277 282 284 284 284 284 281 279 279
286 285 285 280 284 284 285 282 281 281 283 281 281 281 282 279 283 278 282 282 282 283 282 281 273 268 266 270 273 272 275 275 276 277 277 277 277 284 285 284 280 279 278 277 278
292 292 288 284 282 283 282 282 281 283 284 286 284 282 280 283 287 286 287 286 285 282 281 277 274 270 267 267 264 268 273 275 277 278 278 274 280 284 282 280 279 273 277 277 277
Wind_Speed
11 12 12 12 12 12 12 12 12 12 12 12 14 14 13 14 7 6 6 5 8 16 11 5 3 2 2 3 3 3 4 2 4 6 3 2 4 1 1 3 4 3 0 4 6
10 11 13 14 14 13 13 13 13 13 13 14 14 13 13 10 2 8 2 12 12 11 6 5 1 2 4 2 3 4 3 7 3 3 3 2 2 3 3 2 4 4 4 3 3
10 11 12 14 15 15 14 14 13 13 13 14 15 15 15 4 2 1 10 13 11 8 2 0 2 1 4 2 2 3 5 3 2 3 2 3 3 3 2 6 9 6 3 5 3
10 11 12 13 14 15 15 14 13 13 14 15 15 16 12 1 2 2 13 12 8 6 3 3 4 2 3 3 2 2 1 2 2 1 2 3 4 5 9 9 2 4 2 3 4
8 10 11 12 14 15 15 15 14 14 13 14 14 15 4 4 0 3 11 9 4 3 5 3 3 1 4 3 1 1 2 3 3 7 5 4 7 8 10 12 6 7 7 7 6
8 10 11 12 13 15 15 15 14 14 13 12 12 11 2 2 1 5 7 3 5 5 5 6 2 1 4 1 2 1 3 5 3 4 4 5 5 2 6 4 3 5 7 7 8
7 8 10 12 13 15 16 16 15 15 14 11 9 3 3 1 2 4 6 2 3 2 3 2 1 2 1 2 2 1 5 5 1 3 3 5 8 12 9 4 4 6 7 9 8
7 7 9 11 13 15 17 17 18 17 11 6 6 2 2 1 1 4 6 1 4 3 3 1 3 5 3 1 5 4 3 4 1 6 2 2 12 4 2 2 7 9 12 10 13
7 8 9 11 13 16 17 18 15 7 4 3 3 2 3 2 3 3 3 2 4 2 3 2 5 4 4 4 5 6 3 2 8 4 4 3 11 6 4 4 15 10 12 8 11
7 7 6 9 12 15 19 14 3 3 4 2 2 2 3 1 3 3 4 2 3 1 3 6 5 4 4 5 4 3 4 4 6 3 3 6 21 27 12 11 15 14 10 8 8
7 7 6 8 12 17 10 4 7 5 7 1 2 3 3 6 2 4 3 3 1 7 2 3 5 3 4 4 4 4 1 5 5 2 6 5 13 25 21 12 11 8 7 7 8
8 7 5 7 11 13 3 6 2 2 7 2 2 2 1 1 3 4 5 0 2 2 1 4 1 2 6 4 3 2 1 6 6 2 3 8 22 25 10 6 4 6 6 6 4
8 5 4 6 11 5 3 3 2 2 1 4 1 1 2 3 1 4 4 1 3 2 2 2 1 4 2 2 1 3 4 2 5 8 1 10 9 8 3 4 4 5 5 5 6
10 6 2 5 4 2 2 0 2 1 5 3 3 3 3 2 2 2 2 2 4 1 2 2 1 3 2 3 5 3 3 2 4 5 4 6 9 11 3 9 7 8 7 7 4
7 7 7 4 2 2 2 1 2 3 5 2 1 2 1 3 2 3 3 2 3 3 3 1 5 4 3 4 5 3 1 1 2 4 4 6 4 14 2 6 5 6 7 7 8
7 11 12 3 2 1 2 1 2 7 8 2 2 2 2 2 1 2 2 5 1 3 1 3 1 2 2 1 1 1 2 3 3 3 4 3 4 9 5 4 3 2 3 3 5
1 13 4 3 1 4 3 2 3 4 3 6 4 3 1 1 0 2 2 1 3 4 3 1 2 0 1 2 1 1 4 5 8 6 6 2 1 15 8 5 5 5 6 7 7
3 10 3 2 2 2 1 4 6 2 4 1 2 2 3 2 2 2 1 3 3 3 2 3 6 5 3 3 3 1 4 7 6 3 6 1 9 10 6 6 8 8 9 7 9
13 2 2 2 2 2 3 2 4 5 5 4 1 4 3 2 1 3 4 4 4 7 7 4 4 1 1 1 1 2 2 3 8 2 3 4 8 14 5 7 6 9 7 11 7
2 2 1 1 2 3 3 4 4 1 4 3 4 4 2 3 4 4 1 1 1 3 2 1 3 2 1 2 4 1 6 4 4 2 7 7 8 8 5 6 3 5 8 7 9
1 1 1 1 2 3 4 5 4 5 4 5 7 6 7 6 6 3 3 2 1 2 5 3 4 2 2 7 9 3 3 3 3 4 5 5 10 10 9 6 7 8 7 9 13
1 3 2 3 2 2 4 6 4 5 2 3 2 3 6 7 4 3 7 5 3 2 5 3 3 4 10 1 2 2 6 6 6 6 3 1 17 5 8 7 5 9 9 9 10
2 1 0 2 6 5 2 3 3 5 5 6 5 6 3 6 2 4 4 1 3 3 4 3 1 4 8 4 4 5 5 4 4 3 8 6 14 2 3 5 7 9 11 10 12
2 3 1 2 1 4 4 6 7 4 3 4 3 4 4 4 4 4 3 3 2 6 2 3 2 7 9 3 3 5 5 8 5 4 4 16 32 20 28 17 14 8 9 12 12
3 5 3 7 8 9 4 4 5 7 5 6 3 8 7 6 2 5 5 4 3 7 5 6 5 4 5 7 5 13 13 11 17 15 12 29 23 29 24 18 17 16 9 10 12
3 3 1 2 3 13 17 14 19 4 9 5 10 8 10 11 11 9 6 5 7 5 7 4 4 3 6 5 8 16 18 18 21 23 27 30 37 34 29 21 9 8 9 9 12
3 1 2 5 6 9 15 19 8 9 9 14 12 7 11 19 11 1 5 3 4 9 9 8 5 3 7 3 6 14 13 26 23 14 28 22 36 21 19 11 5 7 8 9 9
Wind_Direction
11 5 4 1 360 358 357 356 354 350 348 349 348 347 348 346 353 37 41 284 325 324 337 314 349 332 47 77 53 132 71 207 231 169 231 331 5 249 321 279 315 275 108 170 326
356 353 356 359 357 354 352 355 353 350 348 347 346 345 347 347 41 55 331 338 333 339 356 18 334 325 50 62 19 88 131 214 207 196 214 262 208 308 322 225 260 272 237 341 8
346 347 349 352 353 351 352 351 350 348 344 346 347 345 340 343 107 327 336 342 344 356 183 96 302 344 74 45 15 169 197 192 227 195 174 226 252 222 240 261 221 213 232 324 329
346 344 345 348 349 348 346 345 344 344 345 346 345 340 331 269 354 292 343 343 3 22 69 29 10 43 91 157 332 220 169 178 291 99 302 254 320 260 206 236 184 214 282 269 272
345 345 342 342 343 344 344 340 339 339 339 340 342 342 357 30 54 337 345 348 24 43 55 57 59 61 143 127 55 197 332 298 294 302 260 280 242 238 247 247 277 294 252 239 265
340 343 341 339 338 339 339 335 332 330 331 333 340 341 27 3 305 355 344 3 22 44 33 39 103 176 101 93 143 259 289 280 296 293 282 314 283 6 259 149 192 231 245 248 253
319 333 335 336 336 335 334 329 325 321 320 321 343 43 35 323 350 338 18 31 349 47 83 58 87 64 122 119 336 22 328 319 217 9 309 339 280 228 251 217 249 271 275 277 261
303 315 326 333 333 329 328 323 318 317 316 317 1 54 233 332 279 27 349 26 1 39 103 82 86 101 57 217 19 33 50 350 17 6 323 42 277 286 159 33 287 286 291 300 298
290 305 318 327 329 323 318 313 309 308 323 345 46 70 291 325 45 320 20 356 307 16 43 93 71 90 30 57 7 17 278 298 319 30 318 190 281 190 134 298 280 271 272 271 286
278 284 297 319 326 322 317 319 340 59 35 61 59 23 351 313 314 340 341 13 70 345 33 43 53 79 50 71 239 309 318 298 250 325 323 258 265 282 275 228 254 259 269 279 283
276 284 305 328 335 331 345 19 18 3 40 279 316 295 341 298 272 16 360 327 39 53 66 352 72 198 193 145 131 121 243 264 258 323 317 247 275 283 295 280 265 244 254 269 266
277 291 315 337 339 337 32 68 107 189 315 15 278 280 261 317 331 355 5 144 48 120 250 25 168 153 117 115 117 126 274 274 278 237 266 308 293 280 297 282 275 251 244 240 267
251 259 304 342 341 35 45 91 123 149 315 310 9 17 327 9 24 322 15 357 64 104 68 161 123 139 115 146 173 217 191 250 253 323 160 306 294 318 341 327 305 259 236 234 242
263 225 168 338 41 320 37 58 86 99 50 274 352 10 8 19 14 332 7 103 37 78 139 216 105 146 143 240 153 274 187 194 298 36 280 14 279 296 308 300 254 242 235 242 266
295 184 124 71 158 73 268 290 67 75 348 1 21 266 26 70 279 3 326 350 149 160 106 257 162 177 206 226 179 215 133 240 107 105 48 332 60 271 352 281 250 246 239 233 230
356 139 125 108 77 194 184 169 73 50 256 14 357 344 64 61 56 308 30 52 63 98 38 252 303 197 230 73 217 102 140 70 67 106 26 239 123 277 250 209 288 231 200 241 279
338 149 123 116 285 162 160 8 60 182 357 314 337 348 4 202 148 45 23 309 176 43 338 204 228 288 172 160 45 76 39 330 348 6 229 135 26 249 273 244 237 263 259 269 270
280 130 68 60 60 10 342 50 225 177 215 291 314 287 276 14 62 348 89 274 218 107 110 154 316 183 184 234 179 119 142 154 237 260 276 50 238 252 229 262 250 254 263 281 297
124 71 56 359 17 47 80 170 225 219 166 123 4 34 316 22 130 345 217 219 213 182 174 135 266 50 310 74 26 167 114 131 101 68 16 225 273 282 278 263 259 251 265 274 274
90 105 115 140 12 63 102 236 246 335 115 96 153 175 296 323 37 56 295 209 356 151 88 59 334 8 148 111 27 224 148 75 3 316 290 279 274 241 276 238 204 218 244 269 272
174 125 52 155 100 90 205 215 243 234 191 176 205 172 205 168 161 211 247 254 78 109 93 121 114 287 25 205 178 147 204 73 109 156 193 300 268 209 224 215 233 242 250 269 278
201 221 14 300 112 201 185 191 186 221 138 233 133 202 200 171 156 236 225 219 19 187 168 160 152 220 215 303 321 196 197 167 138 232 233 157 265 198 225 250 241 247 267 273 272
212 156 355 314 215 203 156 236 236 188 198 190 210 202 208 197 238 204 224 219 172 151 171 184 204 339 329 11 353 231 196 176 110 94 202 166 265 295 223 232 248 253 285 290 301
136 186 240 223 29 149 146 221 220 209 224 184 195 133 175 220 192 205 252 222 197 150 153 137 216 196 240 185 148 237 216 204 172 163 207 227 276 265 278 289 289 274 290 301 313
175 229 209 205 219 214 246 189 161 208 226 182 220 206 176 210 172 225 229 172 208 190 138 164 237 208 250 237 238 246 239 202 215 220 216 269 250 276 275 293 297 304 301 307 308
191 169 192 191 171 197 209 230 225 182 157 209 235 189 213 218 194 216 172 181 206 166 161 179 228 129 279 260 242 262 246 230 226 226 247 258 272 259 285 291 293 285 295 302 303
206 164 165 195 177 190 215 229 227 178 230 227 198 217 216 232 234 148 162 231 176 162 177 170 168 160 261 322 326 284 232 219 226 223 227 244 249 283 280 278 265 271 281 283 288